Regional Weather Roundup
Issued by NWS Columbia, SC

Home | Current Version | Previous Version | Text Only | Print | Product List | Glossary On
Versions: 1 2 3 4 5 6 7 8 9 10 11 12 13 14 15 16 17 18 19 20 21 22 23 24 25 26 27 28 29 30 31 32 33 34 35 36 37 38 39 40 41 42 43 44 45 46 47 48 49 50
000
ASUS42 KCAE 252110
RWRCAE
REGIONAL WEATHER ROUNDUP
NATIONAL WEATHER SERVICE COLUMBIA SC
500 PM EDT SUN JUN 25 2017

NOTE: "FAIR" INDICATES FEW OR NO CLOUDS BELOW 12,000 FEET WITH NO
SIGNIFICANT WEATHER AND/OR OBSTRUCTIONS TO VISIBILITY.

NOT ALL STATIONS ARE QUALITY CONTROLLED BY THE NATIONAL
WEATHER SERVICE. USE DATA WITH CAUTION...ESPECIALLY
DEWPOINT OBSERVATIONS.

SCZ001>056-GAZ040-063>065-077-252200-
...UPSTATE SOUTH CAROLINA...

CITY           SKY/WX    TMP DP  RH WIND       PRES   REMARKS
ANDERSON       CLOUDY    84  66  54 N7        30.07S
LIBERTY        CLOUDY    76  67  71 NE6       30.09S
SPARTANBURG    PTSUNNY   75  59  57 N7        30.08S
CLEMSON        CLOUDY    79  71  76 NW3       30.09F
GREENVILLE     CLOUDY    76  62  62 N9        30.10F
GREENWOOD      PTSUNNY   83  66  56 N8        30.07F
GREER          CLOUDY    75  63  66 N7        30.09S
ROCK HILL      CLOUDY    79  65  62 NE7       30.08F
CHESTER        CLOUDY    81  61  50 N6        30.08S
LAURENS        CLOUDY    81  66  61 NE5       30.06F


...CENTRAL SOUTH CAROLINA...

CITY           SKY/WX    TMP DP  RH WIND       PRES   REMARKS
COLUMBIA APT   MOSUNNY   91  68  46 NE8       30.02S HX  95
COLUMBIA OWENS MOSUNNY   91  67  44 N6        30.03S
MCENTIRE ANGB  CLOUDY    89  76  64 SE8       30.03S HX 100
ORANGEBURG     LGT RAIN  79  75  87 S3        30.05R
SUMTER SHAW    PTSUNNY   88  72  60 E6        30.01S
NEWBERRY       PTCLDY    82  68  61 NE5       30.08S
AIKEN          FAIR      86  70  58 NE7       30.07S
BARNWELL       HVY RAIN  75  73  94 E8G16     30.06R VSB 1/2
MANNING        FAIR      77  73  88 S10       30.05R
CAMDEN         MOCLDY    88  68  51 N6        30.04R
LANCASTER      PTCLDY    84  63  48 NE6       30.06F
WINNSBORO      CLEAR     82  68  61 N5        30.05S


...EASTERN AND COASTAL SOUTH CAROLINA...

CITY           SKY/WX    TMP DP  RH WIND       PRES   REMARKS
MYRTLE BEACH   LGT RAIN  82  72  69 W7        30.04R
N MYRTLE BCH   PTSUNNY   83  74  74 SW10      30.03R
CONWAY         RAIN      79  75  89 S3        30.05R
MARION         MOCLDY    84  72  65 CALM      30.02S
HARTSVILLE       N/A    N/A N/A N/A MISG        N/A
FLORENCE       CLOUDY    87  72  60 N6        30.03S
DARLINGTON     CLOUDY    87  71  58 N8        30.03S
CHARLESTON APT TSTM      74  72  93 E8        30.06F FOG
MOUNT PLEASANT LGT RAIN  73  72  94 CALM      30.08S
WALTERBORO     LGT RAIN  73  73 100 E5        30.05F
BEAUFORT       CLOUDY    75  74  96 CALM      30.04S


...EASTERN GEORGIA...

CITY           SKY/WX    TMP DP  RH WIND       PRES   REMARKS
AUGUSTA BUSH F MOSUNNY   93  64  38 N8        30.01S
AUGUSTA DANIEL SUNNY     91  60  35 NW10      30.04S
THOMSON        MOSUNNY   86  67  54 E6        30.10S
WASHINGTON     FAIR      84  73  70 NE3       30.06S
CLAXTON        MOCLDY    76  75  95 CALM      30.05R
SYLVANIA       CLOUDY    80  79  96 CALM      30.05S
STATESBORO     CLOUDY    82  82 100 CALM      30.04R HX  97
SAVANNAH       LGT RAIN  78  74  87 E7        30.04R


...SOUTHERN NORTH CAROLINA...

CITY           SKY/WX    TMP DP  RH WIND       PRES   REMARKS
CHARLOTTE      CLOUDY    78  64  61 N5        30.09F
MONROE         PTSUNNY   81  61  50 N7        30.07F
WADESBORO      CLOUDY    83  64  53 N5        30.05F
ROCKINGHAM     MOCLDY    83  66  55 NW8       30.05S
ASHEVILLE      MOSUNNY   71  52  50 N20G26    30.15F

$$



USA.gov is the U.S. government's official web portal to all federal, state and local government web resources and services.